When you browse on this site, cookies collect data to enhance your experience and personalize the content and advertising you see.
Visit our Privacy Policy to learn more. By continuing to use the site, you agree to this use of cookies and data.
  • In France
  • List of Countries
  • For 7 days
  • Water Temperature
  • Satellite Maps
  • Weather Map
  • Weather Widgets
  • user-avatar
    Login

    Hourly Weather San Juan

    Today, 16 January, Wednesday

    Time Temperature Precipitation Wind Pressure Humidity
    00:00 +27°C° 0 mm 1 mps 704 mmHg 25%
    01:00 +27°C° 0 mm 2 mps 704 mmHg 29%
    02:00 +27°C° 0 mm 3 mps 704 mmHg 30%
    03:00 +26°C° 0 mm 3 mps 704 mmHg 30%
    04:00 +26°C° 0 mm 3 mps 703 mmHg 30%
    05:00 +27°C° 0 mm 4 mps 704 mmHg 31%
    06:00 +29°C° 0 mm 4 mps 704 mmHg 32%
    07:00 +30°C° 0 mm 5 mps 704 mmHg 33%
    08:00 +32°C° 0 mm 4 mps 704 mmHg 29%
    09:00 +34°C° 0 mm 4 mps 704 mmHg 25%
    10:00 +36°C° 0 mm 4 mps 704 mmHg 22%
    11:00 +37°C° 0 mm 4 mps 703 mmHg 19%
    12:00 +37°C° 0 mm 3 mps 703 mmHg 17%
    13:00 +38°C° 0 mm 3 mps 702 mmHg 14%
    14:00 +39°C° 0 mm 3 mps 702 mmHg 14%
    15:00 +39°C° 0 mm 3 mps 702 mmHg 14%
    16:00 +39°C° 0 mm 3 mps 702 mmHg 13%
    17:00 +38°C° 0 mm 3 mps 702 mmHg 15%
    18:00 +37°C° 0 mm 3 mps 702 mmHg 17%
    19:00 +36°C° 0 mm 3 mps 703 mmHg 19%
    20:00 +34°C° 0.2 mm 7 mps 704 mmHg 26%
    21:00 +31°C° 0.2 mm 11 mps 705 mmHg 34%
    22:00 +28°C° 0.2 mm 15 mps 706 mmHg 42%
    23:00 +27°C° 0 mm 14 mps 707 mmHg 43%

    Tomorrow, 17 January, Thursday

    Time Temperature Precipitation Wind Pressure Humidity
    00:00 +24°C° 0 mm 13 mps 707 mmHg 45%
    01:00 +23°C° 0 mm 13 mps 708 mmHg 46%
    02:00 +22°C° 0 mm 12 mps 708 mmHg 50%
    03:00 +21°C° 0 mm 11 mps 708 mmHg 53%
    04:00 +19°C° 0 mm 10 mps 709 mmHg 57%
    05:00 +19°C° 0 mm 9 mps 709 mmHg 57%
    06:00 +19°C° 0 mm 9 mps 710 mmHg 56%
    07:00 +19°C° 0 mm 9 mps 710 mmHg 56%
    08:00 +19°C° 0 mm 9 mps 710 mmHg 57%
    09:00 +19°C° 0 mm 10 mps 710 mmHg 58%
    10:00 +18°C° 0 mm 11 mps 710 mmHg 58%
    11:00 +19°C° 0 mm 11 mps 710 mmHg 57%
    12:00 +19°C° 0 mm 10 mps 710 mmHg 55%
    13:00 +19°C° 0 mm 10 mps 710 mmHg 53%
    14:00 +19°C° 0 mm 10 mps 710 mmHg 52%
    15:00 +21°C° 0 mm 9 mps 709 mmHg 51%
    16:00 +21°C° 0 mm 8 mps 709 mmHg 50%
    17:00 +20°C° 0 mm 7 mps 710 mmHg 52%
    18:00 +19°C° 0 mm 6 mps 710 mmHg 54%
    19:00 +19°C° 0 mm 5 mps 710 mmHg 55%
    20:00 +19°C° 0 mm 4 mps 711 mmHg 56%
    21:00 +18°C° 0 mm 3 mps 711 mmHg 58%
    22:00 +18°C° 0 mm 2 mps 712 mmHg 59%
    23:00 +17°C° 0 mm 2 mps 711 mmHg 61%

    Day after tomorrow, 18 January, Friday

    Time Temperature Precipitation Wind Pressure Humidity
    00:00 +18°C° 0 mm 1 mps 711 mmHg 63%
    01:00 +16°C° 0 mm 1 mps 710 mmHg 65%
    02:00 +16°C° 0 mm 1 mps 710 mmHg 67%
    03:00 +16°C° 0 mm 1 mps 710 mmHg 68%
    04:00 +14°C° 0 mm 0 mps 709 mmHg 70%
    05:00 +16°C° 0 mm 1 mps 710 mmHg 66%
    06:00 +18°C° 0 mm 1 mps 710 mmHg 61%
    07:00 +18°C° 0 mm 2 mps 710 mmHg 56%
    08:00 +20°C° 0 mm 2 mps 710 mmHg 50%
    09:00 +21°C° 0 mm 2 mps 710 mmHg 44%
    10:00 +24°C° 0 mm 2 mps 709 mmHg 37%
    11:00 +25°C° 0 mm 2 mps 709 mmHg 34%
    12:00 +27°C° 0 mm 2 mps 708 mmHg 31%
    13:00 +28°C° 0 mm 2 mps 707 mmHg 28%
    14:00 +28°C° 0 mm 2 mps 707 mmHg 27%
    15:00 +29°C° 0 mm 2 mps 706 mmHg 26%
    16:00 +29°C° 0 mm 2 mps 706 mmHg 25%
    17:00 +28°C° 0 mm 3 mps 706 mmHg 26%
    18:00 +28°C° 0 mm 3 mps 706 mmHg 28%
    19:00 +27°C° 0 mm 3 mps 707 mmHg 29%
    20:00 +26°C° 0 mm 2 mps 707 mmHg 31%
    21:00 +25°C° 0 mm 2 mps 708 mmHg 33%
    22:00 +24°C° 0 mm 1 mps 708 mmHg 35%
    23:00 +24°C° 0 mm 1 mps 708 mmHg 35%

    19 January, Saturday

    Time Temperature Precipitation Wind Pressure Humidity
    00:00 +23°C° 0 mm 1 mps 707 mmHg 36%
    01:00 +23°C° 0 mm 2 mps 707 mmHg 37%
    02:00 +23°C° 0 mm 2 mps 707 mmHg 39%
    03:00 +21°C° 0 mm 2 mps 707 mmHg 42%
    04:00 +21°C° 0 mm 2 mps 707 mmHg 44%
    05:00 +23°C° 0 mm 2 mps 707 mmHg 45%
    06:00 +24°C° 0 mm 3 mps 707 mmHg 46%
    07:00 +25°C° 0 mm 3 mps 708 mmHg 47%
    08:00 +27°C° 0 mm 3 mps 707 mmHg 44%
    09:00 +29°C° 0 mm 3 mps 707 mmHg 40%
    10:00 +30°C° 0 mm 4 mps 707 mmHg 36%
    11:00 +31°C° 0 mm 3 mps 706 mmHg 32%
    12:00 +34°C° 0 mm 3 mps 705 mmHg 28%
    13:00 +35°C° 0 mm 3 mps 705 mmHg 24%
    14:00 +35°C° 0 mm 3 mps 704 mmHg 23%
    15:00 +36°C° 0 mm 2 mps 704 mmHg 22%
    16:00 +36°C° 0 mm 2 mps 704 mmHg 20%
    17:00 +35°C° 0 mm 2 mps 704 mmHg 22%
    18:00 +34°C° 0 mm 2 mps 705 mmHg 24%
    19:00 +32°C° 0 mm 1 mps 705 mmHg 26%
    20:00 +31°C° 0 mm 2 mps 705 mmHg 29%
    21:00 +30°C° 0 mm 3 mps 706 mmHg 32%
    22:00 +29°C° 0 mm 4 mps 706 mmHg 35%
    23:00 +28°C° 0 mm 5 mps 706 mmHg 41%

    20 January, Sunday

    Time Temperature Precipitation Wind Pressure Humidity
    00:00 +27°C° 0 mm 5 mps 705 mmHg 46%
    01:00 +27°C° 0 mm 5 mps 705 mmHg 51%
    02:00 +26°C° 0 mm 4 mps 705 mmHg 53%
    03:00 +26°C° 0 mm 4 mps 704 mmHg 55%
    04:00 +25°C° 0 mm 4 mps 704 mmHg 57%
    05:00 +26°C° 0 mm 4 mps 705 mmHg 53%
    06:00 +28°C° 0 mm 3 mps 705 mmHg 49%
    07:00 +29°C° 0 mm 3 mps 705 mmHg 45%
    08:00 +30°C° 0 mm 3 mps 705 mmHg 41%
    09:00 +31°C° 0 mm 3 mps 705 mmHg 36%
    10:00 +34°C° 0 mm 3 mps 705 mmHg 32%
    11:00 +35°C° 0 mm 2 mps 704 mmHg 29%
    12:00 +36°C° 0 mm 2 mps 703 mmHg 26%
    13:00 +37°C° 0 mm 2 mps 702 mmHg 23%
    14:00 +38°C° 0 mm 2 mps 702 mmHg 22%
    15:00 +38°C° 0 mm 2 mps 701 mmHg 21%
    16:00 +39°C° 0 mm 2 mps 701 mmHg 20%
    17:00 +38°C° 0 mm 2 mps 701 mmHg 21%
    18:00 +37°C° 0 mm 2 mps 702 mmHg 23%
    19:00 +36°C° 0 mm 2 mps 702 mmHg 24%
    20:00 +35°C° 0 mm 2 mps 702 mmHg 27%
    21:00 +34°C° 0 mm 3 mps 703 mmHg 30%
    22:00 +33°C° 0 mm 4 mps 703 mmHg 33%
    23:00 +32°C° 0 mm 4 mps 703 mmHg 38%

    21 January, Monday

    Time Temperature Precipitation Wind Pressure Humidity
    00:00 +30°C° 0 mm 4 mps 703 mmHg 43%
    01:00 +29°C° 0 mm 4 mps 702 mmHg 48%
    02:00 +28°C° 0 mm 4 mps 702 mmHg 52%
    03:00 +28°C° 0 mm 4 mps 702 mmHg 55%
    04:00 +28°C° 0 mm 3 mps 702 mmHg 59%
    05:00 +29°C° 0 mm 3 mps 703 mmHg 55%
    06:00 +30°C° 0 mm 2 mps 703 mmHg 52%
    07:00 +30°C° 0 mm 2 mps 704 mmHg 48%
    08:00 +32°C° 0 mm 2 mps 704 mmHg 43%
    09:00 +34°C° 0 mm 2 mps 704 mmHg 38%
    10:00 +36°C° 0 mm 3 mps 704 mmHg 33%
    11:00 +37°C° 0 mm 4 mps 703 mmHg 30%
    12:00 +39°C° 0 mm 5 mps 703 mmHg 28%
    13:00 +40°C° 0 mm 5 mps 702 mmHg 26%
    14:00 +40°C° 0 mm 5 mps 702 mmHg 26%
    15:00 +40°C° 0 mm 5 mps 702 mmHg 25%
    16:00 +40°C° 0 mm 5 mps 701 mmHg 25%
    17:00 +38°C° 0 mm 4 mps 702 mmHg 26%
    18:00 +37°C° 0 mm 4 mps 702 mmHg 28%
    19:00 +36°C° 0 mm 3 mps 703 mmHg 29%
    20:00 +35°C° 0 mm 2 mps 703 mmHg 31%
    21:00 +35°C° 0 mm 2 mps 704 mmHg 32%
    22:00 +33°C° 0 mm 1 mps 704 mmHg 34%
    23:00 +32°C° 0 mm 2 mps 704 mmHg 35%
    Show more